 day,  time,  air_temp(C),  RH(%),  ground_temp10cm(C),  ground_temp20cm(C),  ground_temp40cm(C),  precipitation(mm/h),  Solar_Radiation(MJ/m2h),  lack, 
 01/03/01, 01:00,   1.1,  99,   1.0,   1.4,   2.3,   1.5,  0.00, 
 01/03/01, 02:00,   2.7,  99,   1.0,   1.4,   2.3,   1.0,  0.00, 
 01/03/01, 03:00,   1.8,  99,   1.0,   1.4,   2.3,   1.5,  0.00, 
 01/03/01, 04:00,   2.6,  99,   1.0,   1.4,   2.3,   2.0,  0.00, 
 01/03/01, 05:00,   0.1,  99,   1.0,   1.4,   2.3,   1.5,  0.00, 
 01/03/01, 06:00,   1.9,  99,   1.0,   1.4,   2.3,   2.5,  0.00, 
 01/03/01, 07:00,   0.8,  99,   1.0,   1.4,   2.3,   0.0,  0.00, 
 01/03/01, 08:00,   2.1,  99,   1.0,   1.4,   2.3,   0.5,  0.23, 
 01/03/01, 09:00,   2.3,  99,   1.0,   1.4,   2.3,   0.0,  0.25, 
 01/03/01, 10:00,   2.2,  99,   1.0,   1.4,   2.3,   0.0,  0.35, 
 01/03/01, 11:00,   2.3,  99,   1.0,   1.4,   2.3,   0.5,  0.52, 
 01/03/01, 12:00,   1.6,  99,   1.0,   1.4,   2.3,   1.5,  0.40, 
 01/03/01, 13:00,   1.8,  99,   1.0,   1.4,   2.3,   2.0,  0.36, 
 01/03/01, 14:00,   0.4,  99,   1.0,   1.4,   2.3,   1.0,  0.21, 
 01/03/01, 15:00,   0.1,  99,   1.0,   1.4,   2.3,   1.5,  0.18, 
 01/03/01, 16:00,   0.4,  99,   1.0,   1.4,   2.3,   1.0,  0.13, 
 01/03/01, 17:00,  -0.3,  99,   1.0,   1.4,   2.3,   1.0,  0.03, 
 01/03/01, 18:00,  -1.4,  99,   1.0,   1.4,   2.3,   2.0,  0.00, 
 01/03/01, 19:00,  -2.0,  99,   1.0,   1.3,   2.3,   1.0,  0.00, 
 01/03/01, 20:00,  -3.1,  99,   1.0,   1.3,   2.3,   0.5,  0.00, 
 01/03/01, 21:00,  -3.9,  99,   1.0,   1.3,   2.3,   0.0,  0.00, 
 01/03/01, 22:00,  -4.0,  99,   1.0,   1.3,   2.3,   0.5,  0.00, 
 01/03/01, 23:00,  -4.5,  99,   1.0,   1.3,   2.3,   0.0,  0.00, 
 01/03/02, 00:00,  -4.3,  99,   1.0,   1.3,   2.3,   0.0,  0.00, 
 01/03/02, 01:00,  -5.0,  97,   1.0,   1.3,   2.3,   0.0,  0.00, 
 01/03/02, 02:00,  -5.0,  97,   1.0,   1.3,   2.3,   0.5,  0.00, 
 01/03/02, 03:00,  -5.3,  96,   1.0,   1.3,   2.3,   1.0,  0.00, 
 01/03/02, 04:00,  -5.7,  96,   1.0,   1.3,   2.3,   0.5,  0.00, 
 01/03/02, 05:00,  -6.2,  97,   1.0,   1.3,   2.3,   0.0,  0.00, 
 01/03/02, 06:00,  -6.2,  96,   1.0,   1.3,   2.3,   0.5,  0.00, 
 01/03/02, 07:00,  -6.9,  94,   0.9,   1.3,   2.2,   0.0,  0.00, 
 01/03/02, 08:00,  -7.3,  94,   0.9,   1.3,   2.2,   0.0,  0.10, 
 01/03/02, 09:00,  -6.9,  94,   1.0,   1.3,   2.3,   0.5,  0.47, 
 01/03/02, 10:00,  -6.4,  92,   1.0,   1.3,   2.3,   0.0,  0.81, 
 01/03/02, 11:00,  -6.0,  92,   1.0,   1.3,   2.3,   0.0,  1.02, 
 01/03/02, 12:00,  -5.7,  90,   1.0,   1.3,   2.3,   0.0,  0.96, 
 01/03/02, 13:00,  -5.8,  90,   1.0,   1.3,   2.3,   0.0,  1.27, 
 01/03/02, 14:00,  -6.1,  87,   1.0,   1.3,   2.2,   0.5,  1.21, 
 01/03/02, 15:00,  -6.0,  88,   1.0,   1.3,   2.3,   0.0,  0.46, 
 01/03/02, 16:00,  -6.2,  89,   1.0,   1.3,   2.3,   0.5,  0.27, 
 01/03/02, 17:00,  -6.6,  92,   1.0,   1.3,   2.3,   0.0,  0.23, 
 01/03/02, 18:00,  -7.1,  87,   1.0,   1.3,   2.3,   0.5,  0.03, 
 01/03/02, 19:00,  -7.4,  92,   1.0,   1.3,   2.3,   0.0,  0.00, 
 01/03/02, 20:00,  -8.4,  92,   1.0,   1.3,   2.3,   0.0,  0.00, 
 01/03/02, 21:00,  -8.2,  87,   1.0,   1.3,   2.3,   0.0,  0.00, 
 01/03/02, 22:00,  -9.1,  87,   1.0,   1.3,   2.3,   0.0,  0.00, 
 01/03/02, 23:00,  -9.3,  87,   1.0,   1.3,   2.2,   0.0,  0.00, 
 01/03/03, 00:00, -10.1,  90,   1.0,   1.3,   2.2,   0.0,  0.00, 
 01/03/03, 01:00,  -8.0,  82,   1.0,   1.3,   2.2,   0.0,  0.00, 
 01/03/03, 02:00,  -9.0,  89,   1.0,   1.3,   2.2,   0.5,  0.00, 
 01/03/03, 03:00,  -9.2,  85,   1.0,   1.3,   2.2,   0.0,  0.00, 
 01/03/03, 04:00,  -9.8,  88,   1.0,   1.3,   2.2,   0.0,  0.00, 
 01/03/03, 05:00,  -8.7,  80,   1.0,   1.3,   2.2,   0.0,  0.00, 
 01/03/03, 06:00,  -6.4,  58,   1.0,   1.3,   2.2,   0.0,  0.00, 
 01/03/03, 07:00,  -7.4,  75,   1.0,   1.3,   2.2,   0.0,  0.05, 
 01/03/03, 08:00,  -5.0,  78,   1.0,   1.3,   2.2,   0.0,  0.78, 
 01/03/03, 09:00,  -1.9,  57,   1.0,   1.3,   2.2,   0.0,  1.59, 
 01/03/03, 10:00,   0.9,  56,   1.0,   1.3,   2.2,   0.0,  2.17, 
 01/03/03, 11:00,   0.0,  74,   1.0,   1.4,   2.3,   0.0,  2.29, 
 01/03/03, 12:00,   2.0,  62,   1.0,   1.4,   2.2,   0.0,  2.14, 
 01/03/03, 13:00,   2.5,  70,   1.0,   1.4,   2.2,   0.0,  2.14, 
 01/03/03, 14:00,   2.4,  59,   1.0,   1.4,   2.3,   0.0,  1.29, 
 01/03/03, 15:00,   1.3,  70,   1.0,   1.4,   2.2,   0.0,  0.76, 
 01/03/03, 16:00,   0.9,  65,   1.0,   1.4,   2.2,   0.0,  0.43, 
 01/03/03, 17:00,   0.3,  73,   1.0,   1.3,   2.3,   0.0,  0.27, 
 01/03/03, 18:00,  -0.8,  76,   1.0,   1.3,   2.2,   0.0,  0.06, 
 01/03/03, 19:00,  -2.0,  86,   1.0,   1.3,   2.3,   0.0,  0.00, 
 01/03/03, 20:00,  -0.7,  61,   1.0,   1.3,   2.2,   0.0,  0.00, 
 01/03/03, 21:00,   0.4,  52,   1.0,   1.3,   2.2,   0.0,  0.00, 
 01/03/03, 22:00,   0.6,  65,   1.0,   1.3,   2.3,   0.0,  0.00, 
 01/03/03, 23:00,   0.8,  66,   1.0,   1.3,   2.2,   0.0,  0.00, 
 01/03/04, 00:00,   1.0,  68,   1.0,   1.3,   2.2,   0.0,  0.00, 
 01/03/04, 01:00,   1.2,  66,   1.0,   1.3,   2.2,   0.0,  0.00, 
 01/03/04, 02:00,   1.1,  72,   1.0,   1.3,   2.2,   0.0,  0.00, 
 01/03/04, 03:00,   2.1,  63,   1.0,   1.3,   2.2,   0.0,  0.00, 
 01/03/04, 04:00,   1.2,  66,   1.0,   1.3,   2.2,   0.0,  0.00, 
 01/03/04, 05:00,   0.6,  71,   1.0,   1.3,   2.2,   0.0,  0.00, 
 01/03/04, 06:00,  -0.2,  82,   1.0,   1.3,   2.2,   0.0,  0.00, 
 01/03/04, 07:00,  -1.6,  99,   1.0,   1.3,   2.2,   1.0,  0.00, 
 01/03/04, 08:00,  -0.5,  99,   1.0,   1.3,   2.2,   6.5,  0.00, 
 01/03/04, 09:00,   0.8,  98,   1.0,   1.3,   2.2,   4.0,  0.00, 
 01/03/04, 10:00,  -1.7,  99,   1.0,   1.3,   2.2,   4.5,  0.01, 
 01/03/04, 11:00,  -1.6,  99,   1.0,   1.3,   2.2,   4.5,  0.16, 
 01/03/04, 12:00,  -3.1,  99,   1.0,   1.3,   2.2,   3.0,  0.33, 
 01/03/04, 13:00,  -3.7,  98,   1.0,   1.3,   2.2,   2.0,  0.40, 
 01/03/04, 14:00,  -4.4,  95,   1.0,   1.3,   2.2,   2.5,  0.37, 
 01/03/04, 15:00,  -2.4,  94,   1.0,   1.3,   2.2,   1.0,  1.29, 
 01/03/04, 16:00,  -3.2,  85,   1.0,   1.3,   2.2,   0.5,  1.26, 
 01/03/04, 17:00,  -3.9,  83,   1.0,   1.3,   2.2,   0.5,  0.90, 
 01/03/04, 18:00,  -4.7,  81,   1.0,   1.3,   2.2,   0.0,  0.06, 
 01/03/04, 19:00,  -5.3,  90,   1.0,   1.3,   2.2,   0.0,  0.00, 
 01/03/04, 20:00,  -5.4,  97,   0.9,   1.3,   2.1,   0.0,  0.00, 
 01/03/04, 21:00,  -5.7,  97,   0.9,   1.3,   2.1,   0.0,  0.00, 
 01/03/04, 22:00,  -6.1,  96,   0.9,   1.3,   2.1,   0.5,  0.00, 
 01/03/04, 23:00,  -6.6,  96,   0.9,   1.3,   2.1,   0.5,  0.00, 
 01/03/05, 00:00,  -7.0,  96,   0.9,   1.3,   2.2,   0.5,  0.00, 
 01/03/05, 01:00,  -7.9,  95,   0.9,   1.3,   2.1,   1.0,  0.00, 
 01/03/05, 02:00,  -8.4,  95,   0.9,   1.3,   2.1,   2.0,  0.00, 
 01/03/05, 03:00,  -8.7,  94,   0.9,   1.3,   2.1,   1.5,  0.00, 
 01/03/05, 04:00,  -8.7,  95,   0.9,   1.3,   2.1,   1.0,  0.00, 
 01/03/05, 05:00,  -9.0,  95,   0.9,   1.3,   2.1,   1.0,  0.00, 
 01/03/05, 06:00,  -9.1,  94,   0.9,   1.3,   2.1,   1.0,  0.00, 
 01/03/05, 07:00,  -9.0,  95,   0.9,   1.3,   2.1,   1.0,  0.00, 
 01/03/05, 08:00,  -8.7,  94,   0.9,   1.3,   2.1,   0.5,  0.00, 
 01/03/05, 09:00,  -7.9,  97,   0.9,   1.3,   2.1,   0.5,  0.14, 
 01/03/05, 10:00,  -7.3,  99,   0.9,   1.3,   2.1,   1.0,  0.19, 
 01/03/05, 11:00,  -6.5,  97,   0.9,   1.3,   2.1,   0.5,  0.40, 
 01/03/05, 12:00,  -6.0,  98,   0.9,   1.3,   2.1,   1.5,  0.61, 
 01/03/05, 13:00,  -5.7,  99,   0.9,   1.3,   2.1,   0.5,  0.44, 
 01/03/05, 14:00,  -5.9,  99,   0.9,   1.3,   2.1,   1.0,  0.31, 
 01/03/05, 15:00,  -5.7,  99,   0.9,   1.3,   2.1,   1.5,  0.12, 
 01/03/05, 16:00,  -5.7,  98,   0.9,   1.3,   2.1,   1.0,  0.10, 
 01/03/05, 17:00,  -5.6,  98,   0.9,   1.3,   2.1,   0.5,  0.00, 
 01/03/05, 18:00,  -5.7,  97,   0.9,   1.3,   2.1,   0.0,  0.00, 
 01/03/05, 19:00,  -5.7,  98,   0.9,   1.3,   2.1,   0.5,  0.00, 
 01/03/05, 20:00,  -5.5,  98,   0.9,   1.3,   2.1,   0.5,  0.00, 
 01/03/05, 21:00,  -5.5,  98,   0.9,   1.3,   2.1,   0.5,  0.00, 
 01/03/05, 22:00,  -5.6,  95,   0.9,   1.3,   2.1,   0.5,  0.00, 
 01/03/05, 23:00,  -5.6,  95,   0.9,   1.3,   2.2,   0.5,  0.00, 
 01/03/06, 00:00,  -5.6,  95,   0.9,   1.3,   2.1,   0.5,  0.00, 
 01/03/06, 01:00,  -5.6,  96,   0.9,   1.3,   2.2,   0.0,  0.00, 
 01/03/06, 02:00,  -5.8,  96,   0.9,   1.3,   2.1,   0.5,  0.00, 
 01/03/06, 03:00,  -6.0,  94,   0.9,   1.3,   2.1,   0.0,  0.00, 
 01/03/06, 04:00,  -5.6,  93,   0.9,   1.3,   2.1,   0.0,  0.00, 
 01/03/06, 05:00,  -5.3,  94,   0.9,   1.3,   2.1,   0.5,  0.00, 
 01/03/06, 06:00,  -5.0,  94,   0.9,   1.3,   2.1,   0.0,  0.00, 
 01/03/06, 07:00,  -4.8,  97,   0.9,   1.3,   2.1,   0.0,  0.00, 
 01/03/06, 08:00,  -4.2,  96,   0.9,   1.3,   2.1,   0.5,  0.15, 
 01/03/06, 09:00,  -3.3,  93,   0.9,   1.3,   2.1,   0.0,  0.44, 
 01/03/06, 10:00,  -2.3,  86,   0.9,   1.3,   2.1,   0.0,  0.60, 
 01/03/06, 11:00,  -0.9,  81,   0.9,   1.3,   2.2,   0.0,  0.89, 
 01/03/06, 12:00,   0.4,  80,   1.0,   1.3,   2.3,   0.0,  1.30, 
 01/03/06, 13:00,   1.5,  82,   1.0,   1.3,   2.2,   0.0,  2.16, 
 01/03/06, 14:00,  -0.4,  90,   1.0,   1.3,   2.2,   0.0,  1.45, 
 01/03/06, 15:00,   0.5,  82,   1.0,   1.3,   2.3,   0.0,  1.72, 
 01/03/06, 16:00,  -0.3,  85,   1.0,   1.3,   2.2,   0.0,  1.27, 
 01/03/06, 17:00,  -1.2,  83,   1.0,   1.3,   2.3,   0.0,  0.63, 
 01/03/06, 18:00,  -1.6,  79,   1.0,   1.3,   2.3,   0.0,  0.10, 
 01/03/06, 19:00,  -2.1,  86,   1.0,   1.3,   2.3,   0.0,  0.00, 
 01/03/06, 20:00,  -1.1,  84,   1.0,   1.3,   2.2,   0.0,  0.00, 
 01/03/06, 21:00,  -0.9,  81,   1.0,   1.3,   2.3,   0.0,  0.00, 
 01/03/06, 22:00,  -1.1,  81,   1.0,   1.3,   2.2,   0.0,  0.00, 
 01/03/06, 23:00,  -0.7,  86,   1.0,   1.3,   2.3,   0.0,  0.00, 
 01/03/07, 00:00,  -0.8,  89,   1.0,   1.3,   2.2,   0.0,  0.00, 
 01/03/07, 01:00,  -0.3,  88,   0.9,   1.3,   2.2,   0.0,  0.00, 
 01/03/07, 02:00,  -0.1,  92,   1.0,   1.3,   2.3,   0.0,  0.00, 
 01/03/07, 03:00,  -0.2,  91,   1.0,   1.3,   2.3,   0.0,  0.00, 
 01/03/07, 04:00,  -0.1,  94,   0.9,   1.3,   2.2,   0.0,  0.00, 
 01/03/07, 05:00,   0.0,  98,   0.9,   1.3,   2.2,   0.0,  0.00, 
 01/03/07, 06:00,   0.2,  99,   0.9,   1.3,   2.2,   0.0,  0.00, 
 01/03/07, 07:00,  -0.5,  99,   1.0,   1.3,   2.3,   0.0,  0.00, 
 01/03/07, 08:00,  -1.0,  99,   1.0,   1.3,   2.3,   0.0,  0.00, 
 01/03/07, 09:00,  -1.6,  99,   0.9,   1.3,   2.2,   0.0,  0.07, 
 01/03/07, 10:00,  -2.3,  96,   0.9,   1.3,   2.3,   1.0,  0.24, 
 01/03/07, 11:00,  -2.9,  91,   1.0,   1.3,   2.3,   1.5,  0.34, 
 01/03/07, 12:00,  -2.6,  85,   1.0,   1.3,   2.3,   0.5,  0.75, 
 01/03/07, 13:00,  -3.7,  85,   1.0,   1.4,   2.3,   0.5,  0.78, 
 01/03/07, 14:00,  -3.7,  88,   1.0,   1.4,   2.3,   0.0,  0.64, 
 01/03/07, 15:00,  -4.5,  85,   1.0,   1.4,   2.3,   0.5,  0.61, 
 01/03/07, 16:00,  -5.2,  89,   1.0,   1.4,   2.3,   0.0,  0.55, 
 01/03/07, 17:00,  -5.8,  90,   1.0,   1.4,   2.3,   0.0,  0.22, 
 01/03/07, 18:00,  -6.8,  92,   1.0,   1.4,   2.3,   0.0,  0.03, 
 01/03/07, 19:00,  -7.0,  93,   1.0,   1.4,   2.3,   0.0,  0.00, 
 01/03/07, 20:00,  -7.3,  91,   1.0,   1.4,   2.3,   0.0,  0.00, 
 01/03/07, 21:00,  -7.5,  91,   1.0,   1.3,   2.3,   0.0,  0.00, 
 01/03/07, 22:00,  -7.9,  89,   1.0,   1.3,   2.3,   0.0,  0.00, 
 01/03/07, 23:00,  -8.3,  90,   1.0,   1.3,   2.3,   0.5,  0.00, 
 01/03/08, 00:00,  -8.6,  89,   1.0,   1.3,   2.3,   0.5,  0.00, 
 01/03/08, 01:00,  -8.8,  92,   1.0,   1.3,   2.3,   0.0,  0.00, 
 01/03/08, 02:00,  -9.4,  88,   1.0,   1.3,   2.3,   0.0,  0.00, 
 01/03/08, 03:00,  -9.6,  87,   1.0,   1.3,   2.3,   0.0,  0.00, 
 01/03/08, 04:00,  -9.9,  90,   1.0,   1.3,   2.3,   0.0,  0.00, 
 01/03/08, 05:00, -10.2,  92,   1.0,   1.3,   2.3,   0.0,  0.00, 
 01/03/08, 06:00, -10.0,  83,   1.0,   1.3,   2.3,   0.0,  0.00, 
 01/03/08, 07:00, -10.4,  89,   1.0,   1.3,   2.3,   0.0,  0.05, 
 01/03/08, 08:00,  -8.8,  81,   1.0,   1.3,   2.3,   0.0,  0.98, 
 01/03/08, 09:00,  -7.5,  77,   1.0,   1.3,   2.3,   0.0,  1.87, 
 01/03/08, 10:00,  -5.1,  60,   1.0,   1.3,   2.3,   0.0,  2.36, 
 01/03/08, 11:00,  -4.0,  60,   1.0,   1.3,   2.3,   0.0,  2.84, 
 01/03/08, 12:00,  -2.1,  54,   1.0,   1.3,   2.3,   0.0,  3.20, 
 01/03/08, 13:00,  -3.2,  58,   1.0,   1.3,   2.3,   0.0,  2.25, 
 01/03/08, 14:00,  -4.0,  66,   1.0,   1.3,   2.3,   0.0,  1.44, 
 01/03/08, 15:00,  -4.1,  74,   1.0,   1.3,   2.3,   0.0,  1.13, 
 01/03/08, 16:00,  -5.7,  93,   1.0,   1.3,   2.3,   0.0,  0.39, 
 01/03/08, 17:00,  -5.9,  90,   1.0,   1.3,   2.3,   0.0,  0.45, 
 01/03/08, 18:00,  -7.4,  89,   1.0,   1.3,   2.3,   0.5,  0.01, 
 01/03/08, 19:00,  -8.4,  91,   1.0,   1.3,   2.3,   0.5,  0.00, 
 01/03/08, 20:00,  -8.7,  89,   1.0,   1.4,   2.3,   0.0,  0.00, 
 01/03/08, 21:00,  -9.0,  94,   1.0,   1.4,   2.3,   0.5,  0.00, 
 01/03/08, 22:00,  -9.5,  94,   1.0,   1.3,   2.3,   0.5,  0.00, 
 01/03/08, 23:00, -10.0,  94,   1.0,   1.3,   2.3,   0.5,  0.00, 
 01/03/09, 00:00, -10.5,  84,   1.0,   1.4,   2.3,   0.5,  0.00, 
 01/03/09, 01:00, -10.7,  89,   1.0,   1.4,   2.3,   0.0,  0.00, 
 01/03/09, 02:00, -11.0,  87,   0.9,   1.3,   2.2,   0.0,  0.00, 
 01/03/09, 03:00, -10.8,  89,   0.9,   1.3,   2.2,   0.0,  0.00, 
 01/03/09, 04:00, -10.6,  89,   0.9,   1.4,   2.3,   0.0,  0.00, 
 01/03/09, 05:00, -10.7,  92,   0.9,   1.4,   2.3,   0.5,  0.00, 
 01/03/09, 06:00, -10.5,  85,   0.9,   1.4,   2.3,   0.0,  0.00, 
 01/03/09, 07:00, -10.5,  90,   0.9,   1.3,   2.3,   0.5,  0.03, 
 01/03/09, 08:00,  -9.8,  87,   0.9,   1.3,   2.2,   0.0,  0.41, 
 01/03/09, 09:00,  -9.0,  83,   0.9,   1.4,   2.3,   0.0,  0.91, 
 01/03/09, 10:00,  -8.7,  84,   0.9,   1.4,   2.3,   0.0,  1.05, 
 01/03/09, 11:00,  -8.3,  87,   0.9,   1.4,   2.3,   0.5,  0.96, 
 01/03/09, 12:00,  -6.6,  79,   1.0,   1.4,   2.3,   0.0,  1.89, 
 01/03/09, 13:00,  -5.8,  74,   1.0,   1.4,   2.3,   0.0,  2.00, 
 01/03/09, 14:00,  -5.8,  70,   0.9,   1.4,   2.3,   0.0,  1.29, 
 01/03/09, 15:00,  -6.9,  67,   1.0,   1.4,   2.3,   0.0,  1.22, 
 01/03/09, 16:00,  -7.6,  72,   1.0,   1.4,   2.3,   0.0,  0.77, 
 01/03/09, 17:00,  -8.4,  91,   1.0,   1.4,   2.3,   0.0,  0.32, 
 01/03/09, 18:00,  -8.8,  81,   0.9,   1.4,   2.3,   0.0,  0.14, 
 01/03/09, 19:00,  -9.6,  91,   0.9,   1.4,   2.3,   0.0,  0.00, 
 01/03/09, 20:00,  -9.7,  80,   0.9,   1.4,   2.3,   0.0,  0.00, 
 01/03/09, 21:00, -10.4,  87,   0.9,   1.4,   2.3,   0.0,  0.00, 
 01/03/09, 22:00, -10.3,  92,   0.9,   1.4,   2.3,   0.0,  0.00, 
 01/03/09, 23:00, -11.5,  93,   0.9,   1.4,   2.3,   0.0,  0.00, 
 01/03/10, 00:00, -10.5,  86,   0.9,   1.4,   2.3,   0.0,  0.00, 
 01/03/10, 01:00, -11.1,  88,   0.9,   1.4,   2.3,   0.5,  0.00, 
 01/03/10, 02:00, -10.3,  88,   0.9,   1.4,   2.3,   0.0,  0.00, 
 01/03/10, 03:00,  -9.7,  87,   0.9,   1.4,   2.3,   0.0,  0.00, 
 01/03/10, 04:00, -10.0,  92,   0.9,   1.4,   2.3,   0.0,  0.00, 
 01/03/10, 05:00,  -9.8,  93,   1.0,   1.4,   2.3,   0.0,  0.00, 
 01/03/10, 06:00,  -9.7,  92,   1.0,   1.4,   2.3,   0.5,  0.00, 
 01/03/10, 07:00,  -9.4,  90,   0.9,   1.4,   2.3,   0.5,  0.00, 
 01/03/10, 08:00,  -8.6,  86,   1.0,   1.4,   2.3,   0.0,  0.30, 
 01/03/10, 09:00,  -6.8,  76,   1.0,   1.4,   2.3,   0.0,  1.10, 
 01/03/10, 10:00,  -5.2,  77,   1.1,   1.4,   2.3,   0.0,  1.36, 
 01/03/10, 11:00,  -3.6,  70,   1.1,   1.4,   2.3,   0.5,  1.71, 
 01/03/10, 12:00,  -2.6,  71,   1.1,   1.4,   2.3,   0.0,  1.77, 
 01/03/10, 13:00,  -4.8,  80,   1.1,   1.4,   2.3,   0.0,  1.50, 
 01/03/10, 14:00,  -5.0,  84,   1.1,   1.4,   2.3,   0.0,  0.56, 
 01/03/10, 15:00,  -5.7,  91,   1.1,   1.4,   2.3,   0.0,  0.36, 
 01/03/10, 16:00,  -5.6,  94,   1.1,   1.4,   2.3,   0.0,  0.26, 
 01/03/10, 17:00,  -5.6,  94,   1.1,   1.4,   2.3,   1.0,  0.14, 
 01/03/10, 18:00,  -5.7,  97,   1.1,   1.4,   2.3,   1.0,  0.01, 
 01/03/10, 19:00,  -5.9,  96,   1.1,   1.4,   2.3,   1.5,  0.00, 
 01/03/10, 20:00,  -6.0,  96,   1.1,   1.4,   2.3,   1.0,  0.00, 
 01/03/10, 21:00,  -6.1,  96,   1.0,   1.4,   2.3,   0.5,  0.00, 
 01/03/10, 22:00,  -7.9,  95,   1.1,   1.4,   2.3,   1.5,  0.00, 
 01/03/10, 23:00,  -8.8,  88,   1.0,   1.4,   2.3,   1.0,  0.00, 
 01/03/11, 00:00,  -9.1,  93,   1.1,   1.4,   2.3,   0.0,  0.00, 
 01/03/11, 01:00,  -9.6,  95,   1.0,   1.4,   2.3,   0.5,  0.00, 
 01/03/11, 02:00, -10.0,  90,   1.0,   1.4,   2.3,   0.0,  0.00, 
 01/03/11, 03:00, -10.4,  91,   1.0,   1.4,   2.3,   0.0,  0.00, 
 01/03/11, 04:00, -10.6,  89,   1.0,   1.4,   2.3,   0.0,  0.00, 
 01/03/11, 05:00, -11.3,  89,   1.0,   1.4,   2.3,   0.0,  0.00, 
 01/03/11, 06:00, -12.4,  88,   1.0,   1.4,   2.3,   0.0,  0.00, 
 01/03/11, 07:00, -12.0,  87,   1.0,   1.4,   2.3,   0.0,  0.07, 
 01/03/11, 08:00, -10.2,  82,   1.0,   1.4,   2.3,   0.0,  0.70, 
 01/03/11, 09:00,  -8.5,  75,   1.0,   1.4,   2.3,   0.0,  1.58, 
 01/03/11, 10:00,  -6.9,  69,   1.1,   1.4,   2.3,   0.0,  2.11, 
 01/03/11, 11:00,  -5.9,  66,   1.1,   1.4,   2.3,   0.0,  2.26, 
 01/03/11, 12:00,  -5.6,  65,   1.1,   1.4,   2.3,   0.0,  3.03, 
 01/03/11, 13:00,  -4.9,  66,   1.1,   1.5,   2.3,   0.0,  2.39, 
 01/03/11, 14:00,  -4.7,  67,   1.1,   1.4,   2.3,   0.0,  3.17, 
 01/03/11, 15:00,  -5.0,  63,   1.1,   1.4,   2.3,   0.0,  2.60, 
 01/03/11, 16:00,  -5.8,  65,   1.1,   1.4,   2.3,   0.0,  1.88, 
 01/03/11, 17:00,  -6.6,  71,   1.1,   1.4,   2.3,   0.0,  0.99, 
 01/03/11, 18:00,  -7.9,  77,   1.1,   1.4,   2.3,   0.0,  0.20, 
 01/03/11, 19:00,  -8.6,  76,   1.1,   1.4,   2.3,   0.0,  0.00, 
 01/03/11, 20:00,  -9.3,  80,   1.1,   1.4,   2.3,   0.0,  0.00, 
 01/03/11, 21:00, -10.3,  86,   1.0,   1.4,   2.3,   0.0,  0.00, 
 01/03/11, 22:00, -12.2,  91,   1.0,   1.4,   2.3,   0.0,  0.00, 
 01/03/11, 23:00, -10.7,  86,   1.0,   1.4,   2.3,   0.0,  0.00, 
 01/03/12, 00:00, -11.3,  85,   1.0,   1.4,   2.3,   0.0,  0.00, 
 01/03/12, 01:00, -11.9,  87,   1.0,   1.4,   2.3,   0.0,  0.00, 
 01/03/12, 02:00, -11.8,  86,   1.0,   1.4,   2.3,   0.0,  0.00, 
 01/03/12, 03:00, -13.3,  89,   1.0,   1.4,   2.3,   0.0,  0.00, 
 01/03/12, 04:00, -12.8,  83,   1.0,   1.4,   2.2,   0.0,  0.00, 
 01/03/12, 05:00, -12.4,  84,   1.0,   1.4,   2.2,   0.0,  0.00, 
 01/03/12, 06:00, -13.8,  86,   1.0,   1.4,   2.2,   0.0,  0.00, 
 01/03/12, 07:00, -12.3,  81,   1.0,   1.4,   2.2,   0.0,  0.19, 
 01/03/12, 08:00,  -8.9,  60,   1.0,   1.4,   2.2,   0.0,  1.39, 
 01/03/12, 09:00,  -7.6,  57,   1.0,   1.4,   2.2,   0.0,  2.08, 
 01/03/12, 10:00,  -3.6,  31,   1.0,   1.4,   2.3,   0.0,  2.60, 
 01/03/12, 11:00,  -3.3,  49,   1.1,   1.4,   2.3,   0.0,  2.90, 
 01/03/12, 12:00,  -3.2,  58,   1.1,   1.4,   2.3,   0.0,  2.82, 
 01/03/12, 13:00,  -1.8,  39,   1.1,   1.4,   2.3,   0.0,  2.77, 
 01/03/12, 14:00,  -1.9,  48,   1.1,   1.4,   2.3,   0.0,  2.42, 
 01/03/12, 15:00,  -2.2,  46,   1.1,   1.4,   2.3,   0.0,  1.13, 
 01/03/12, 16:00,  -2.7,  51,   1.0,   1.4,   2.3,   0.0,  0.75, 
 01/03/12, 17:00,  -3.7,  65,   1.1,   1.4,   2.3,   0.0,  0.41, 
 01/03/12, 18:00,  -4.2,  75,   1.1,   1.4,   2.3,   0.0,  0.06, 
 01/03/12, 19:00,  -5.1,  90,   1.0,   1.4,   2.3,   0.0,  0.00, 
 01/03/12, 20:00,  -5.2,  86,   1.0,   1.4,   2.3,   0.0,  0.00, 
 01/03/12, 21:00,  -5.8,  89,   1.0,   1.4,   2.2,   0.0,  0.00, 
 01/03/12, 22:00,  -6.2,  90,   1.0,   1.4,   2.3,   0.5,  0.00, 
 01/03/12, 23:00,  -6.9,  98,   1.0,   1.4,   2.3,   0.5,  0.00, 
 01/03/13, 00:00,  -8.7,  90,   1.0,   1.4,   2.3,   1.0,  0.00, 
 01/03/13, 01:00,  -9.8,  93,   1.0,   1.4,   2.3,   1.5,  0.00, 
 01/03/13, 02:00, -11.1,  88,   1.0,   1.4,   2.2,   0.5,  0.00, 
 01/03/13, 03:00, -11.1,  90,   1.0,   1.4,   2.3,   0.5,  0.00, 
 01/03/13, 04:00, -11.1,  92,   1.0,   1.4,   2.2,   0.5,  0.00, 
 01/03/13, 05:00, -11.2,  92,   1.0,   1.4,   2.2,   1.0,  0.00, 
 01/03/13, 06:00, -11.6,  93,   1.0,   1.4,   2.2,   1.0,  0.00, 
 01/03/13, 07:00, -11.8,  95,   1.0,   1.4,   2.2,   1.0,  0.04, 
 01/03/13, 08:00, -11.9,  87,   1.0,   1.4,   2.2,   0.5,  0.45, 
 01/03/13, 09:00, -10.6,  80,   1.0,   1.4,   2.2,   0.0,  1.44, 
 01/03/13, 10:00,  -7.5,  71,   1.0,   1.4,   2.3,   0.5,  2.38, 
 01/03/13, 11:00,  -6.6,  75,   1.1,   1.4,   2.3,   0.0,  2.36, 
 01/03/13, 12:00,  -4.6,  74,   1.1,   1.5,   2.3,   0.0,  2.81, 
 01/03/13, 13:00,  -4.2,  62,   1.1,   1.5,   2.3,   0.0,  3.07, 
 01/03/13, 14:00,  -3.6,  66,   1.2,   1.5,   2.3,   0.0,  2.84, 
 01/03/13, 15:00,  -3.7,  70,   1.2,   1.5,   2.3,   0.0,  2.39, 
 01/03/13, 16:00,  -4.5,  72,   1.2,   1.5,   2.3,   0.0,  1.74, 
 01/03/13, 17:00,  -4.8,  74,   1.1,   1.5,   2.3,   0.0,  0.97, 
 01/03/13, 18:00,  -5.7,  75,   1.1,   1.5,   2.3,   0.0,  0.21, 
 01/03/13, 19:00,  -7.7,  84,   1.1,   1.4,   2.3,   0.5,  0.00, 
 01/03/13, 20:00,  -7.6,  84,   1.1,   1.4,   2.3,   0.0,  0.00, 
 01/03/13, 21:00,  -4.4,  61,   1.1,   1.4,   2.3,   0.0,  0.00, 
 01/03/13, 22:00,  -5.3,  67,   1.1,   1.4,   2.3,   0.0,  0.00, 
 01/03/13, 23:00,  -4.4,  60,   1.1,   1.5,   2.3,   0.0,  0.00, 
 01/03/14, 00:00,  -6.1,  67,   1.1,   1.4,   2.3,   0.0,  0.00, 
 01/03/14, 01:00,  -4.4,  50,   1.1,   1.4,   2.3,   0.0,  0.00, 
 01/03/14, 02:00,  -6.5,  61,   1.1,   1.4,   2.3,   0.0,  0.00, 
 01/03/14, 03:00,  -5.9,  60,   1.1,   1.4,   2.3,   0.0,  0.00, 
 01/03/14, 04:00,  -6.9,  63,   1.1,   1.4,   2.3,   0.0,  0.00, 
 01/03/14, 05:00,  -5.2,  54,   1.1,   1.5,   2.3,   0.0,  0.00, 
 01/03/14, 06:00,  -4.5,  42,   1.1,   1.5,   2.3,   0.0,  0.00, 
 01/03/14, 07:00,  -5.9,  58,   1.1,   1.4,   2.3,   0.0,  0.15, 
 01/03/14, 08:00,  -2.3,  47,   1.1,   1.5,   2.3,   0.0,  0.90, 
 01/03/14, 09:00,   0.7,  34,   1.1,   1.5,   2.3,   0.0,  1.68, 
 01/03/14, 10:00,   5.0,  29,   1.1,   1.5,   2.3,   0.0,  2.33, 
 01/03/14, 11:00,   4.5,  42,   1.1,   1.5,   2.3,   0.0,  2.80, 
 01/03/14, 12:00,   6.2,  39,   1.2,   1.5,   2.3,   0.0,  3.09, 
 01/03/14, 13:00,   5.6,  43,   1.1,   1.5,   2.3,   0.0,  2.45, 
 01/03/14, 14:00,   5.3,  45,   1.1,   1.5,   2.3,   0.0,  2.79, 
 01/03/14, 15:00,   5.4,  43,   1.1,   1.5,   2.3,   0.0,  2.37, 
 01/03/14, 16:00,   5.5,  42,   1.1,   1.5,   2.3,   0.0,  1.70, 
 01/03/14, 17:00,   4.5,  52,   1.1,   1.5,   2.3,   0.0,  0.99, 
 01/03/14, 18:00,   2.9,  63,   1.1,   1.5,   2.3,   0.0,  0.19, 
 01/03/14, 19:00,   1.5,  74,   1.1,   1.5,   2.3,   0.0,  0.00, 
 01/03/14, 20:00,   1.7,  67,   1.1,   1.4,   2.3,   0.0,  0.00, 
 01/03/14, 21:00,   2.2,  64,   1.1,   1.5,   2.3,   0.0,  0.00, 
 01/03/14, 22:00,   0.5,  76,   1.1,   1.5,   2.3,   0.0,  0.00, 
 01/03/14, 23:00,   0.5,  80,   1.1,   1.4,   2.2,   0.0,  0.00, 
 01/03/15, 00:00,   2.1,  82,   1.1,   1.3,   2.2,   0.0,  0.00, 
 01/03/15, 01:00,   2.9,  81,   1.1,   1.4,   2.2,   0.0,  0.00, 
 01/03/15, 02:00,   2.8,  89,   1.1,   1.4,   2.2,   0.0,  0.00, 
 01/03/15, 03:00,   2.7,  98,   1.1,   1.3,   2.2,   0.0,  0.00, 
 01/03/15, 04:00,   2.8,  99,   1.1,   1.4,   2.2,   0.0,  0.00, 
 01/03/15, 05:00,   2.9,  99,   1.1,   1.4,   2.2,   0.0,  0.00, 
 01/03/15, 06:00,   3.1,  99,   1.1,   1.4,   2.2,   0.0,  0.00, 
 01/03/15, 07:00,   3.2,  99,   1.1,   1.4,   2.2,   1.0,  0.00, 
 01/03/15, 08:00,   3.5,  99,   1.1,   1.4,   2.2,   0.5,  0.00, 
 01/03/15, 09:00,   3.3,  99,   1.1,   1.3,   2.2,   0.5,  0.00, 
 01/03/15, 10:00,   2.9,  99,   1.1,   1.4,   2.2,   1.5,  0.10, 
 01/03/15, 11:00,   2.5,  99,   1.1,   1.4,   2.2,   2.5,  0.22, 
 01/03/15, 12:00,   1.1,  99,   1.2,   1.4,   2.2,   1.5,  0.21, 
 01/03/15, 13:00,   0.9,  95,   1.2,   1.4,   2.3,   0.5,  0.57, 
 01/03/15, 14:00,   0.6,  90,   1.1,   1.4,   2.3,   0.5,  0.76, 
 01/03/15, 15:00,   0.8,  78,   1.1,   1.4,   2.3,   0.0,  1.66, 
 01/03/15, 16:00,   0.0,  72,   1.1,   1.4,   2.3,   0.0,  1.59, 
 01/03/15, 17:00,  -0.8,  81,   1.1,   1.4,   2.3,   0.5,  0.82, 
 01/03/15, 18:00,  -2.5,  84,   1.1,   1.4,   2.3,   0.0,  0.16, 
 01/03/15, 19:00,  -3.2,  89,   1.1,   1.4,   2.3,   0.0,  0.00, 
 01/03/15, 20:00,  -3.8,  85,   1.1,   1.4,   2.3,   0.5,  0.00, 
 01/03/15, 21:00,  -3.9,  84,   1.1,   1.4,   2.3,   0.0,  0.00, 
 01/03/15, 22:00,  -3.9,  86,   1.1,   1.4,   2.3,   0.0,  0.00, 
 01/03/15, 23:00,  -4.8,  91,   1.1,   1.4,   2.3,   0.0,  0.00, 
 01/03/16, 00:00,  -5.2,  85,   1.1,   1.4,   2.3,   0.0,  0.00, 
 01/03/16, 01:00,  -5.9,  85,   1.1,   1.4,   2.3,   0.0,  0.00, 